Terminal Aerodrome Forecast
Issued by NWS

Home | Current Version | Previous Version | Text Only | Print | Product List | Glossary On
Versions: 1 2 3 4 5 6 7 8 9 10 11 12 13 14 15 16 17 18 19 20 21 22 23 24 25 26 27 28 29
000
FTUS43 KDLH 300200 AAA
TAFBRD
TAF AMD
KBRD 300240Z 3003/3024 00000KT P6SM OVC045
      TEMPO 3004/3006 2SM BR BKN011
     FM300600 36003KT 1SM BR OVC010
      TEMPO 3008/3012 3/4SM BR OVC004
     FM301500 01005KT P6SM BKN015
     FM301800 VRB05KT P6SM VCSH BKN030=

USA.gov is the U.S. government's official web portal to all federal, state and local government web resources and services.